Home   Weather   Dreieich   Past weeks

Flag for Germany Past Weather in Dreieich, Hesse, Germany — Yesterday and Last 2 Weeks

Now
50 °F

Passing clouds.


Feels Like: 47 °F
Forecast: 29 / 60 °F
Wind: 7 mph from Northwest

Location: Frankfurt-M-Flughafen Airport

Current Time: Apr 23, 2017 at 4:20:35 pm

Latest Report: Apr 23, 2017 at 3:50 pm


Visibility: N/A

Pressure: 30.24 "Hg

Humidity: 43%

Dew Point: 28 °F

Location of DreieichLocation

Past Weather in Dreieich — Graph

°F

Dreieich Temperature Yesterday

Maximum temperature yesterday: 54 °F (at 12:20 am)
Minimum temperature yesterday: 46 °F (at 11:20 pm)
Average temperature yesterday: 51 °F

High & Low Weather Summary for the Past Weeks

 TemperatureHumidityPressure
High73 °F (Apr 9, 5:50 pm)100% (Apr 17, 10:20 am)30.60 "Hg (Apr 17, 10:20 am)
Low27 °F (Apr 20, 4:20 am)29% (Apr 9, 5:50 pm)29.89 "Hg (Apr 12, 6:20 pm)
Average49 °F62%30.18 "Hg
* Reported Apr 8 2:20 pm — Apr 23 2:50 pm, Dreieich, Weather by CustomWeather, © 2017

Note: Actual official high and low records may vary slightly from our data, if they occured in-between our weather recording intervals... More about our weather records

Advertising

Dreieich Weather History for the Previous 24 Hours

Scroll right to see more
 ConditionsComfort  
Time TempWeatherWind HumidityBarometerVisibility
2:50 pm
Sun, Apr 23
50 °FPartly sunny.7 mph43%30.24 "HgN/A
1:50 pm48 °FPartly sunny.12 mph46%30.27 "HgN/A
1:20 pm48 °FPartly sunny.9 mph46%30.27 "HgN/A
12:50 pm46 °FPartly sunny.10 mph53%30.27 "HgN/A
12:20 pm46 °FPartly sunny.8 mph53%30.27 "HgN/A
11:50 am46 °FPartly sunny.7 mph57%30.27 "HgN/A
11:20 am45 °FBroken clouds.8 mph61%30.27 "HgN/A
10:50 am45 °FBroken clouds.8 mph61%30.27 "HgN/A
10:20 am45 °FScattered clouds.10 mph61%30.27 "HgN/A
9:50 am45 °FScattered clouds.9 mph61%30.27 "HgN/A
9:20 am45 °FScattered clouds.9 mph61%30.27 "HgN/A
8:50 am43 °FScattered clouds.12 mph66%30.27 "HgN/A
8:20 am43 °FScattered clouds.13 mph66%30.27 "HgN/A
7:50 am43 °FScattered clouds.8 mph66%30.27 "HgN/A
7:20 am41 °FScattered clouds.8 mph70%30.27 "HgN/A
6:50 am39 °FScattered clouds.9 mph70%30.24 "HgN/A
6:20 am41 °FScattered clouds.7 mph66%30.24 "HgN/A
5:50 am39 °FPassing clouds.9 mph70%30.24 "HgN/A
4:50 am39 °FClear.7 mph70%30.24 "Hg10 mi
4:20 am41 °FClear.9 mph66%30.24 "Hg10 mi
3:50 am41 °FPassing clouds.10 mph66%30.24 "HgN/A
3:20 am41 °FPassing clouds.5 mph66%30.24 "HgN/A
2:50 am43 °FPassing clouds.9 mph61%30.21 "HgN/A
2:20 am43 °FPassing clouds.8 mph61%30.24 "HgN/A
1:50 am45 °FClear.9 mph57%30.24 "Hg10 mi
1:20 am45 °FPassing clouds.7 mph57%30.24 "HgN/A
12:50 am45 °FClear.9 mph61%30.24 "Hg10 mi
12:20 am45 °FPassing clouds.10 mph61%30.24 "HgN/A
11:50 pm
Sat, Apr 22
46 °FClear.13 mph57%30.24 "Hg10 mi
11:20 pm46 °FClear.7 mph62%30.24 "Hg10 mi
10:50 pm48 °FPassing clouds.10 mph58%30.21 "HgN/A
10:20 pm48 °FPassing clouds.13 mph58%30.21 "HgN/A
9:50 pm48 °FPassing clouds.9 mph58%30.21 "HgN/A
9:20 pm50 °FPassing clouds.16 mph50%30.21 "HgN/A
8:50 pm50 °FPassing clouds.9 mph50%30.21 "HgN/A
8:20 pm50 °FPartly sunny.9 mph50%30.21 "HgN/A
7:50 pm50 °FBroken clouds.12 mph47%30.21 "HgN/A
7:20 pm50 °FPartly sunny.14 mph47%30.21 "HgN/A
6:50 pm52 °FBroken clouds.15 mph47%30.21 "HgN/A
6:20 pm52 °FScattered clouds.17 mph44%30.21 "HgN/A
5:50 pm52 °FScattered clouds.16 mph47%30.18 "HgN/A
5:20 pm52 °FScattered clouds.14 mph50%30.21 "HgN/A
4:50 pm52 °FScattered clouds.12 mph54%30.21 "HgN/A
4:20 pm50 °FPartly sunny.15 mph58%30.21 "HgN/A
Weather by CustomWeather, © 2017

See weather overviewHow to use our weather pages